Terre Haute, IN

12:53 AM EST on December 06, 2019 (GMT -0500)
Terre Haute International-Hulman

Weather History for KHUF - October, 2019

Change the Weather History Date:

Friday, October 18, 2019

  Actual Average Record
Temperature  
Mean Temperature 48 °F 53 °F  
Max Temperature 63 °F 65 °F 84 °F (1956)
Min Temperature 32 °F 42 °F 24 °F (2015)
Degree Days  
Heating Degree Days 17 12  
Month to date heating degree days 148 169  
Since 1 July heating degree days 150 247  
Cooling Degree Days 0 0  
Month to date cooling degree days 34 12  
Year to date cooling degree days 1298 990  
Moisture  
Dew Point 38 °F    
Average Humidity 72    
Maximum Humidity 100    
Minimum Humidity 43    
Precipitation  
Precipitation 0.00 in 0.12 in 2.08 in (2004)
Month to date precipitation 1.92 2.07  
Year to date precipitation 39.85 36.77  
Sea Level Pressure  
Sea Level Pressure 30.04 in    
Wind  
Wind Speed 4 mph (SE)    
Max Wind Speed 13 mph    
Max Gust Speed 17 mph    
Visibility 10 miles    
Events      
T = Trace of Precipitation, MM = Missing Value Source: NWS Daily Summary

Daily Weather History Graph

Daily Weather History Graph

Search for Another Location

Airport or City:

Astronomy

Oct. 18, 2019 Rise Set
Actual Time 8:02 AM EDT 7:06 PM EDT
Civil Twilight 7:34 AM EDT 7:33 PM EDT
Nautical Twilight 7:03 AM EDT 8:04 PM EDT
Astronomical Twilight 6:32 AM EDT 8:35 PM EDT
Moon 10:23 PM EDT (10/18) 12:33 PM EDT (10/18)
Length of Visible Light 11h 58m
Length of Day
11h 04m
Waning Gibbous, 79% of the Moon is Illuminated
Oct 18
Waning Gibbous
Oct 21
Last Quarter
Oct 27
New
Nov 4
First Quarter
Nov 12
Full

Hourly Weather History & Observations

Time (EDT) Temp. Windchill Dew Point Humidity Pressure Visibility Wind Dir Wind Speed Gust Speed Precip Events Conditions
12:53 AM 37.0 °F - 35.1 °F 93% 30.05 in 10.0 mi Calm Calm - N/A   Clear
1:53 AM 37.0 °F - 34.0 °F 89% 30.06 in 10.0 mi Calm Calm - N/A   Clear
2:50 AM 35.6 °F - 33.8 °F 93% 30.06 in 10.0 mi Calm Calm - N/A   Partly Cloudy
2:53 AM 36.0 °F - 34.0 °F 93% 30.06 in 10.0 mi Calm Calm - N/A   Clear
3:53 AM 35.1 °F - 34.0 °F 96% 30.07 in 10.0 mi Calm Calm - N/A   Clear
4:53 AM 35.1 °F 32.2 °F 33.1 °F 92% 30.07 in 10.0 mi NE 3.5 mph - N/A   Clear
5:53 AM 34.0 °F - 32.0 °F 92% 30.07 in 10.0 mi Calm Calm - N/A   Clear
6:53 AM 33.1 °F - 32.0 °F 96% 30.08 in 10.0 mi Calm Calm - N/A   Clear
7:53 AM 34.0 °F 31.0 °F 33.1 °F 96% 30.10 in 10.0 mi NE 3.5 mph - N/A   Clear
8:53 AM 39.0 °F - 37.0 °F 93% 30.10 in 10.0 mi Calm Calm - N/A   Clear
9:53 AM 46.9 °F - 41.0 °F 80% 30.11 in 10.0 mi SE 3.5 mph - N/A   Clear
10:53 AM 51.1 °F - 42.1 °F 71% 30.11 in 10.0 mi SSE 6.9 mph - N/A   Clear
11:53 AM 55.0 °F - 42.1 °F 62% 30.09 in 10.0 mi South 9.2 mph - N/A   Clear
12:53 PM 59.0 °F - 41.0 °F 51% 30.09 in 10.0 mi SSE 9.2 mph - N/A   Clear
1:53 PM 60.1 °F - 39.9 °F 47% 30.06 in 10.0 mi SSW 6.9 mph - N/A   Clear
2:53 PM 62.1 °F - 41.0 °F 46% 30.04 in 10.0 mi North - - N/A   Clear
3:53 PM 62.1 °F - 41.0 °F 46% 30.01 in 10.0 mi North - - N/A   Clear
4:53 PM 63.0 °F - 39.9 °F 43% 30.00 in 10.0 mi South 8.1 mph - N/A   Clear
5:53 PM 62.1 °F - 39.9 °F 44% 29.99 in 10.0 mi South 6.9 mph - N/A   Clear
6:53 PM 57.9 °F - 41.0 °F 53% 29.97 in 10.0 mi SE 4.6 mph - N/A   Clear
7:53 PM 51.1 °F - 39.9 °F 66% 29.97 in 10.0 mi SE 4.6 mph - N/A   Clear
8:53 PM 46.9 °F - 39.9 °F 77% 29.97 in 10.0 mi ESE 3.5 mph - N/A   Clear
9:53 PM 45.0 °F 43.5 °F 39.0 °F 80% 29.96 in 10.0 mi ESE 3.5 mph - N/A   Clear
10:53 PM 46.0 °F 44.8 °F 39.9 °F 79% 29.96 in 10.0 mi ESE 3.5 mph - N/A   Clear
11:53 PM 41.0 °F - 39.0 °F 93% 29.95 in 10.0 mi Calm Calm - N/A   Clear